When you browse on this site, cookies collect data to enhance your experience and personalize the content and advertising you see.
Visit our Privacy Policy to learn more. By continuing to use the site, you agree to this use of cookies and data.

Meteo pe oră la Dzierzanow

Astăzi, 21 Septembrie, Luni

Timp Temperatura Precipitaţii Vânt Presiune Umiditate
00:00 +12°C° 0 mm 2 m/s 756 mmHg 79%
01:00 +10°C° 0 mm 2 m/s 756 mmHg 82%
02:00 +10°C° 0 mm 2 m/s 756 mmHg 83%
03:00 +10°C° 0 mm 2 m/s 756 mmHg 85%
04:00 +9°C° 0 mm 2 m/s 756 mmHg 87%
05:00 +10°C° 0 mm 2 m/s 756 mmHg 84%
06:00 +12°C° 0 mm 2 m/s 756 mmHg 81%
07:00 +13°C° 0 mm 2 m/s 756 mmHg 79%
08:00 +15°C° 0 mm 2 m/s 756 mmHg 69%
09:00 +17°C° 0 mm 2 m/s 756 mmHg 60%
10:00 +20°C° 0 mm 3 m/s 756 mmHg 50%
11:00 +21°C° 0 mm 3 m/s 755 mmHg 47%
12:00 +22°C° 0 mm 3 m/s 755 mmHg 44%
13:00 +24°C° 0 mm 3 m/s 755 mmHg 41%
14:00 +24°C° 0 mm 3 m/s 755 mmHg 44%
15:00 +24°C° 0 mm 2 m/s 754 mmHg 47%
16:00 +23°C° 0 mm 2 m/s 754 mmHg 50%
17:00 +20°C° 0 mm 2 m/s 754 mmHg 54%
18:00 +18°C° 0 mm 2 m/s 754 mmHg 59%
19:00 +16°C° 0 mm 2 m/s 754 mmHg 63%
20:00 +16°C° 0 mm 2 m/s 754 mmHg 65%
21:00 +15°C° 0 mm 2 m/s 754 mmHg 66%
22:00 +15°C° 0 mm 2 m/s 753 mmHg 67%
23:00 +15°C° 0 mm 2 m/s 753 mmHg 68%

Mâine, 22 Septembrie, Marţi

Timp Temperatura Precipitaţii Vânt Presiune Umiditate
00:00 +14°C° 0 mm 2 m/s 753 mmHg 69%
01:00 +14°C° 0 mm 2 m/s 753 mmHg 70%
02:00 +14°C° 0 mm 2 m/s 753 mmHg 71%
03:00 +13°C° 0 mm 2 m/s 753 mmHg 73%
04:00 +13°C° 0 mm 2 m/s 753 mmHg 74%
05:00 +14°C° 0 mm 2 m/s 753 mmHg 72%
06:00 +15°C° 0 mm 2 m/s 753 mmHg 70%
07:00 +15°C° 0 mm 1 m/s 753 mmHg 67%
08:00 +18°C° 0 mm 2 m/s 753 mmHg 60%
09:00 +20°C° 0 mm 2 m/s 753 mmHg 53%
10:00 +23°C° 0 mm 2 m/s 753 mmHg 46%
11:00 +24°C° 0 mm 2 m/s 752 mmHg 43%
12:00 +26°C° 0 mm 2 m/s 752 mmHg 41%
13:00 +27°C° 0 mm 2 m/s 752 mmHg 38%
14:00 +26°C° 0 mm 2 m/s 751 mmHg 40%
15:00 +26°C° 0 mm 2 m/s 751 mmHg 43%
16:00 +25°C° 0 mm 2 m/s 750 mmHg 46%
17:00 +23°C° 0 mm 2 m/s 750 mmHg 49%
18:00 +21°C° 0 mm 3 m/s 750 mmHg 52%
19:00 +19°C° 0 mm 3 m/s 750 mmHg 55%
20:00 +18°C° 0 mm 3 m/s 750 mmHg 56%
21:00 +18°C° 0 mm 3 m/s 749 mmHg 58%
22:00 +17°C° 0 mm 3 m/s 749 mmHg 59%
23:00 +17°C° 0 mm 3 m/s 749 mmHg 62%

Poimâine, 23 Septembrie, Miercuri

Timp Temperatura Precipitaţii Vânt Presiune Umiditate
00:00 +16°C° 0 mm 3 m/s 749 mmHg 64%
01:00 +16°C° 0 mm 3 m/s 749 mmHg 67%
02:00 +14°C° 0 mm 3 m/s 749 mmHg 67%
03:00 +14°C° 0 mm 3 m/s 748 mmHg 68%
04:00 +14°C° 0 mm 3 m/s 748 mmHg 69%
05:00 +14°C° 0 mm 3 m/s 748 mmHg 66%
06:00 +16°C° 0 mm 3 m/s 748 mmHg 64%
07:00 +17°C° 0 mm 3 m/s 748 mmHg 62%
08:00 +19°C° 0 mm 3 m/s 748 mmHg 57%
09:00 +21°C° 0 mm 3 m/s 747 mmHg 52%
10:00 +24°C° 0 mm 3 m/s 747 mmHg 47%
11:00 +25°C° 0 mm 3 m/s 747 mmHg 43%
12:00 +27°C° 0 mm 2 m/s 747 mmHg 40%
13:00 +28°C° 0 mm 2 m/s 747 mmHg 36%
14:00 +28°C° 0 mm 2 m/s 746 mmHg 39%
15:00 +27°C° 0 mm 2 m/s 746 mmHg 42%
16:00 +27°C° 0 mm 2 m/s 746 mmHg 44%
17:00 +25°C° 0 mm 2 m/s 746 mmHg 48%
18:00 +23°C° 0 mm 2 m/s 746 mmHg 52%
19:00 +20°C° 0 mm 3 m/s 746 mmHg 56%
20:00 +20°C° 0 mm 3 m/s 746 mmHg 59%
21:00 +19°C° 0 mm 3 m/s 746 mmHg 62%
22:00 +19°C° 0 mm 3 m/s 746 mmHg 65%
23:00 +18°C° 0 mm 3 m/s 746 mmHg 67%

24 Septembrie, Joi

Timp Temperatura Precipitaţii Vânt Presiune Umiditate
00:00 +17°C° 0 mm 3 m/s 746 mmHg 69%
01:00 +17°C° 0 mm 2 m/s 746 mmHg 71%
02:00 +16°C° 0 mm 2 m/s 746 mmHg 72%
03:00 +16°C° 0 mm 3 m/s 746 mmHg 73%
04:00 +16°C° 0 mm 3 m/s 746 mmHg 73%
05:00 +16°C° 0 mm 3 m/s 746 mmHg 73%
06:00 +17°C° 0 mm 3 m/s 747 mmHg 72%
07:00 +17°C° 0 mm 3 m/s 747 mmHg 71%
08:00 +20°C° 0 mm 3 m/s 747 mmHg 66%
09:00 +22°C° 0 mm 3 m/s 747 mmHg 61%
10:00 +25°C° 0 mm 3 m/s 747 mmHg 55%
11:00 +26°C° 0 mm 3 m/s 747 mmHg 53%
12:00 +27°C° 0 mm 3 m/s 747 mmHg 50%
13:00 +27°C° 0 mm 4 m/s 747 mmHg 47%
14:00 +27°C° 0.1 mm 3 m/s 747 mmHg 50%
15:00 +26°C° 0.1 mm 3 m/s 747 mmHg 53%
16:00 +26°C° 0.1 mm 2 m/s 747 mmHg 57%
17:00 +24°C° 0.5 mm 2 m/s 747 mmHg 63%
18:00 +23°C° 0.5 mm 1 m/s 747 mmHg 70%
19:00 +21°C° 0.5 mm 1 m/s 748 mmHg 77%
20:00 +20°C° 0.2 mm 1 m/s 748 mmHg 79%
21:00 +20°C° 0.2 mm 1 m/s 748 mmHg 80%
22:00 +20°C° 0.2 mm 1 m/s 748 mmHg 82%
23:00 +19°C° 0 mm 1 m/s 748 mmHg 83%

25 Septembrie, Vineri

Timp Temperatura Precipitaţii Vânt Presiune Umiditate
00:00 +18°C° 0 mm 2 m/s 748 mmHg 84%
01:00 +18°C° 0 mm 2 m/s 748 mmHg 85%
02:00 +18°C° 0 mm 2 m/s 747 mmHg 85%
03:00 +17°C° 0 mm 2 m/s 747 mmHg 86%
04:00 +17°C° 0 mm 2 m/s 747 mmHg 86%
05:00 +18°C° 0 mm 3 m/s 747 mmHg 84%
06:00 +18°C° 0 mm 4 m/s 747 mmHg 82%
07:00 +18°C° 0 mm 4 m/s 746 mmHg 80%
08:00 +20°C° 0 mm 5 m/s 746 mmHg 72%
09:00 +22°C° 0 mm 6 m/s 746 mmHg 64%
10:00 +24°C° 0 mm 7 m/s 745 mmHg 56%
11:00 +26°C° 0 mm 7 m/s 745 mmHg 53%
12:00 +27°C° 0 mm 8 m/s 744 mmHg 49%
13:00 +28°C° 0 mm 8 m/s 744 mmHg 46%
14:00 +27°C° 0 mm 7 m/s 743 mmHg 48%
15:00 +27°C° 0 mm 6 m/s 743 mmHg 51%
16:00 +26°C° 0 mm 5 m/s 742 mmHg 53%
17:00 +24°C° 0 mm 6 m/s 742 mmHg 55%
18:00 +23°C° 0 mm 6 m/s 742 mmHg 57%
19:00 +22°C° 0 mm 7 m/s 742 mmHg 59%
20:00 +22°C° 0 mm 6 m/s 741 mmHg 61%
21:00 +22°C° 0 mm 6 m/s 741 mmHg 62%
22:00 +21°C° 0 mm 6 m/s 741 mmHg 64%
23:00 +21°C° 0 mm 6 m/s 740 mmHg 64%

26 Septembrie, Sâmbătă

Timp Temperatura Precipitaţii Vânt Presiune Umiditate
00:00 +21°C° 0 mm 6 m/s 740 mmHg 64%
01:00 +20°C° 0 mm 6 m/s 739 mmHg 64%
02:00 +20°C° 0 mm 6 m/s 739 mmHg 66%
03:00 +20°C° 0 mm 6 m/s 739 mmHg 68%
04:00 +20°C° 0 mm 6 m/s 738 mmHg 70%
05:00 +20°C° 0.1 mm 6 m/s 738 mmHg 71%
06:00 +20°C° 0.1 mm 6 m/s 738 mmHg 71%
07:00 +20°C° 0.1 mm 5 m/s 738 mmHg 72%
08:00 +20°C° 0 mm 6 m/s 738 mmHg 69%
09:00 +21°C° 0 mm 6 m/s 738 mmHg 66%
10:00 +22°C° 0 mm 6 m/s 739 mmHg 63%
11:00 +21°C° 0.1 mm 6 m/s 739 mmHg 68%
12:00 +20°C° 0.1 mm 5 m/s 739 mmHg 72%
13:00 +19°C° 0.1 mm 4 m/s 740 mmHg 77%
14:00 +19°C° 0 mm 4 m/s 740 mmHg 77%
15:00 +19°C° 0 mm 3 m/s 740 mmHg 76%
16:00 +18°C° 0 mm 3 m/s 740 mmHg 76%
17:00 +18°C° 0 mm 2 m/s 740 mmHg 79%
18:00 +17°C° 0 mm 2 m/s 740 mmHg 81%
19:00 +16°C° 0 mm 2 m/s 740 mmHg 84%
20:00 +16°C° 0 mm 2 m/s 740 mmHg 86%
21:00 +16°C° 0 mm 3 m/s 740 mmHg 88%
22:00 +15°C° 0 mm 4 m/s 739 mmHg 90%
23:00 +17°C° 0.4 mm 4 m/s 738 mmHg 89%
Arată mai mult